Location: *
(48.8667°N, 2.3331°E)
Time: 08:40:25
(UTC+00:00)

SAR-Lupe-2 - Pass Details

Date: 09 April 2020
Orbit: 481 x 485 km, 98.1° (Epoch: 27 May)

Event Time Altitude Azimuth Distance (km) Brightness Sun altitude
Rises 20:15:15 0° 20° (NNE) 2,556 7.4 -16.0°
Reaches altitude 10° 20:17:24 10° 27° (NNE) 1,670 6.4 -16.3°
Maximum altitude 20:20:50 42° 100° (E) 697 3.9 -16.8°
Enters shadow 20:21:13 41° 119° (ESE) 717 3.9 -16.9°
